Terminal Aerodrome Forecast
Issued by NWS

Home | Current Version | Previous Version | Text Only | Print | Product List | Glossary On
Versions: 1 2 3 4 5 6 7 8 9 10 11 12 13 14 15 16 17 18 19
000
FTUS43 KMQT 232300
TAFSAW
TAF
KSAW 232320Z 2400/2424 16006KT 1/4SM -RA FG OVC002
     FM241000 02005KT 1/2SM -RA FG OVC002
     FM241200 33009KT 1SM -RA BR OVC003
     FM241500 34015G25KT 2SM -SN BKN004
      AMD LTD TO CLD VIS AND WIND 2403/2411=

USA.gov is the U.S. government's official web portal to all federal, state and local government web resources and services.